CYBX

Lourdes de Blanc Sablon Airport

ICAO Code CYBX
IATA Code YBX
Name Lourdes de Blanc Sablon Airport
Location Lourdes-De-Blanc-Sablon, Quebec, CA
Elevation 122 Feet / 37.2 Meters
Latitude 51.44194444
Longitude -57.18611111
METAR CYBX 182200Z 08013KT 15SM -RA FEW060 BKN091 OVC130 17/11 A2999 RMK SC2AC4AC2 SLP159 DENSITY ALT 400FT
Extra information Display NOTAMS
Display Charts
Runway Length Width Surface Elevation
05 4500 ft 150 ft ASP 79 ft
23 4500 ft 150 ft ASP 122 ft